AC4AG Weather Reports


time (UTC)temp
C
wind
direction
speed
KPH
gust
KPH
rain 1hr
cm
rain 24hr
cm
rain mn
cm
humidity
%
barometer
mb
20260505130159 16 183 4.8 8.0 0.00 0.00 0.00 67 1012.3
20260505124648 16 169 9.7 11.3 0.00 0.00 0.00 67 1012.5
20260505124145 16 202 3.2 4.8 0.00 0.00 0.00 70 1012.5
20260505123641 15 154 8.0 11.3 0.00 0.00 0.00 69 1012.4
20260505123138 15 177 3.2 8.0 0.00 0.00 0.00 69 1012.4
20260505122634 15 173 4.8 8.0 0.00 0.00 0.00 70 1012.2
20260505122132 15 160 3.2 9.7 0.00 0.00 0.00 70 1012.0
20260505121628 15 145 3.2 3.2 0.00 0.00 0.00 71 1012.3
20260505121125 15 152 1.6 1.6 0.00 0.00 0.00 72 1012.1
20260505120621 15 129 1.6 4.8 0.00 0.00 0.00 71 1012.2
20260505120117 15 156 1.6 4.8 0.00 0.00 0.00 72 1012.0
20260505115612 15 153 1.6 3.2 0.00 0.00 0.00 73 1012.1
20260505115109 14 134 3.2 3.2 0.00 0.00 0.00 72 1012.2
20260505114606 14 143 0.0 0.0 0.00 0.00 0.00 74 1011.8
20260505114103 14 141 0.0 0.0 0.00 0.00 0.00 73 1012.0
20260505113559 14 129 0.0 0.0 0.00 0.00 0.00 72 1011.9
20260505113056 14 147 0.0 0.0 0.00 0.00 0.00 71 1012.0
20260505112552 14 145 0.0 0.0 0.00 0.00 0.00 71 1011.9
20260505112050 15 159 1.6 1.6 0.00 0.00 0.00 69 1011.9
20260505111544 15 178 3.2 8.0 0.00 0.00 0.00 68 1011.7
20260505111040 15 226 3.2 4.8 0.00 0.00 0.00 68 1011.7
20260505110537 15 189 6.4 9.7 0.00 0.00 0.00 68 1011.8
20260505102009 15 143 4.8 11.3 0.00 0.00 0.00 68 1011.1
20260505101508 15 158 6.4 14.5 0.00 0.00 0.00 68 1011.1
20260505101004 15 215 6.4 9.7 0.00 0.00 0.00 68 1011.1
20260505100501 15 109 4.8 14.5 0.00 0.00 0.00 68 1011.1
20260505095957 15 153 4.8 11.3 0.00 0.00 0.00 68 1011.0
20260505095454 15 201 4.8 4.8 0.00 0.00 0.00 67 1011.1
20260505094950 15 171 3.2 9.7 0.00 0.00 0.00 67 1011.1
20260505094447 15 200 6.4 9.7 0.00 0.00 0.00 67 1011.0
20260505093943 15 161 4.8 9.7 0.00 0.00 0.00 67 1010.9
20260505093439 15 194 4.8 9.7 0.00 0.00 0.00 67 1011.0
20260505092937 15 140 3.2 8.0 0.00 0.00 0.00 67 1011.0
20260505092435 15 159 4.8 8.0 0.00 0.00 0.00 66 1010.9
20260505091932 15 197 8.0 11.3 0.00 0.00 0.00 66 1011.0
20260505091430 15 182 4.8 4.8 0.00 0.00 0.00 66 1011.0
20260505090927 15 161 3.2 9.7 0.00 0.00 0.00 66 1011.1
20260505090426 15 134 8.0 9.7 0.00 0.00 0.00 66 1011.3
20260505085922 15 168 4.8 8.0 0.00 0.00 0.00 66 1011.4
20260505085420 15 166 1.6 4.8 0.00 0.00 0.00 66 1011.5
20260505084918 15 156 3.2 9.7 0.00 0.00 0.00 66 1011.3
20260505084416 15 184 4.8 8.0 0.00 0.00 0.00 66 1011.3
20260505083914 15 169 3.2 8.0 0.00 0.00 0.00 66 1011.2
20260505083411 15 174 1.6 3.2 0.00 0.00 0.00 66 1011.2
20260505082907 15 166 3.2 4.8 0.00 0.00 0.00 66 1011.4
20260505082403 15 194 1.6 3.2 0.00 0.00 0.00 66 1011.2
20260505081900 15 173 1.6 4.8 0.00 0.00 0.00 65 1011.3
20260505081357 15 194 1.6 9.7 0.00 0.00 0.00 65 1011.0
20260505080854 15 194 3.2 4.8 0.00 0.00 0.00 66 1010.9
20260505080349 15 143 4.8 9.7 0.00 0.00 0.00 65 1010.9
20260505075845 15 203 8.0 12.9 0.00 0.00 0.00 65 1010.6
20260505075342 15 206 3.2 9.7 0.00 0.00 0.00 65 1010.6
20260505074839 15 169 4.8 4.8 0.00 0.00 0.00 65 1010.8
20260505074336 15 173 4.8 4.8 0.00 0.00 0.00 65 1010.8
20260505073834 15 164 3.2 8.0 0.00 0.00 0.00 65 1011.0
20260505073332 15 161 1.6 3.2 0.00 0.00 0.00 66 1010.9
20260505072828 15 151 3.2 4.8 0.00 0.00 0.00 66 1010.5
20260505072325 15 187 1.6 8.0 0.00 0.00 0.00 66 1010.7
20260505071820 15 167 3.2 4.8 0.00 0.00 0.00 66 1010.7
20260505071317 15 175 4.8 8.0 0.00 0.00 0.00 66 1010.7
20260505070815 15 173 4.8 4.8 0.00 0.00 0.00 65 1010.9
20260505070312 16 178 3.2 3.2 0.00 0.00 0.00 65 1010.8
20260505065807 16 173 3.2 8.0 0.00 0.00 0.00 64 1010.7
20260505065304 16 141 3.2 9.7 0.00 0.00 0.00 65 1010.8
20260505064801 15 199 4.8 9.7 0.00 0.00 0.00 65 1010.8
20260505064258 15 175 1.6 4.8 0.00 0.00 0.00 65 1010.5
20260505063756 16 162 4.8 4.8 0.00 0.00 0.00 64 1011.0
20260505063252 16 139 1.6 3.2 0.00 0.00 0.00 65 1010.7
20260505062749 16 187 4.8 8.0 0.00 0.00 0.00 64 1010.8
20260505062246 16 183 3.2 4.8 0.00 0.00 0.00 64 1010.7
20260505061743 16 146 6.4 9.7 0.00 0.00 0.00 64 1010.9
20260505061241 16 164 3.2 8.0 0.00 0.00 0.00 64 1011.1
20260505060738 16 183 1.6 8.0 0.00 0.00 0.00 63 1011.0
20260505060235 16 171 4.8 4.8 0.00 0.00 0.00 63 1011.0
20260505055730 16 166 6.4 12.9 0.00 0.00 0.00 63 1011.2
20260505055227 16 165 4.8 4.8 0.00 0.00 0.00 63 1011.1
20260505054724 16 161 3.2 4.8 0.00 0.00 0.00 63 1011.0
20260505054222 16 193 3.2 8.0 0.00 0.00 0.00 62 1011.1
20260505053720 17 151 1.6 3.2 0.00 0.00 0.00 62 1010.9
20260505053216 17 192 4.8 8.0 0.00 0.00 0.00 62 1011.0
20260505052714 17 169 4.8 8.0 0.00 0.00 0.00 61 1011.1
20260505052210 17 211 6.4 9.7 0.00 0.00 0.00 61 1010.9
20260505051707 17 179 4.8 12.9 0.00 0.00 0.00 61 1010.8
20260505051206 17 160 3.2 9.7 0.00 0.00 0.00 61 1010.6
20260505050703 17 213 8.0 12.9 0.00 0.00 0.00 60 1010.7
20260505050201 18 206 11.3 12.9 0.00 0.00 0.00 59 1010.7
20260505041637 18 195 11.3 20.9 0.00 0.00 0.00 60 1010.1
20260505041134 18 194 8.0 14.5 0.00 0.00 0.00 60 1010.0
20260505040631 18 178 6.4 11.3 0.00 0.00 0.00 59 1010.1
20260505040128 18 172 6.4 17.7 0.00 0.00 0.00 59 1010.0
20260505035624 18 171 9.7 14.5 0.00 0.00 0.00 59 1010.3
20260505035120 18 259 8.0 14.5 0.00 0.00 0.00 59 1009.9
20260505034617 18 177 11.3 14.5 0.00 0.00 0.00 59 1009.9
20260505034114 18 220 11.3 14.5 0.00 0.00 0.00 58 1010.0
20260505033611 18 211 8.0 25.7 0.00 0.00 0.00 58 1010.0
20260505033110 18 185 9.7 12.9 0.00 0.00 0.00 58 1010.3
20260505032607 18 167 8.0 11.3 0.00 0.00 0.00 59 1010.0
20260505032103 18 181 8.0 17.7 0.00 0.00 0.00 58 1009.9
20260505031601 18 144 6.4 14.5 0.00 0.00 0.00 58 1009.7
20260505031057 18 187 4.8 8.0 0.00 0.00 0.00 58 1009.9
20260505030554 18 211 4.8 16.1 0.00 0.00 0.00 57 1009.7
20260505030050 18 142 4.8 12.9 0.00 0.00 0.00 57 1009.7
20260505025545 18 183 9.7 16.1 0.00 0.00 0.00 57 1009.6
20260505025045 19 171 3.2 9.7 0.00 0.00 0.00 57 1009.7
20260505024541 19 178 8.0 12.9 0.00 0.00 0.00 56 1009.5
20260505024038 19 144 4.8 11.3 0.00 0.00 0.00 56 1009.3
20260505023535 19 190 4.8 11.3 0.00 0.00 0.00 56 1009.6
20260505023033 19 169 6.4 12.9 0.00 0.00 0.00 56 1009.5
20260505022530 20 195 6.4 14.5 0.00 0.00 0.00 55 1009.5
20260505022027 20 184 4.8 12.9 0.00 0.00 0.00 54 1009.5
20260505021524 20 217 6.4 12.9 0.00 0.00 0.00 54 1009.5
20260505021021 20 130 4.8 14.5 0.00 0.00 0.00 54 1009.6
20260505020520 20 199 8.0 14.5 0.00 0.00 0.00 54 1009.5
20260505020018 20 220 6.4 14.5 0.00 0.00 0.00 55 1009.5
20260505015515 20 190 9.7 16.1 0.00 0.00 0.00 55 1009.7
20260505015012 20 194 4.8 12.9 0.00 0.00 0.00 55 1009.4
20260505014509 20 214 14.5 17.7 0.00 0.00 0.00 54 1009.6
20260505014006 20 203 8.0 16.1 0.00 0.00 0.00 54 1009.4
20260505013503 20 203 8.0 14.5 0.00 0.00 0.00 54 1009.3
20260505013000 20 195 11.3 17.7 0.00 0.00 0.00 54 1009.4
20260505012458 20 212 11.3 14.5 0.00 0.00 0.00 54 1009.3
20260505011955 20 172 4.8 12.9 0.00 0.00 0.00 54 1009.4
20260505011450 20 176 4.8 12.9 0.00 0.00 0.00 55 1009.4
20260505010948 20 188 4.8 9.7 0.00 0.00 0.00 54 1009.6
20260505010443 20 155 8.0 11.3 0.00 0.00 0.00 54 1009.5
20260505005939 20 209 4.8 11.3 0.00 0.00 0.00 54 1009.5
20260505005436 20 205 6.4 12.9 0.00 0.00 0.00 54 1009.2
20260505004934 20 211 4.8 8.0 0.00 0.00 0.00 54 1009.2
20260505004431 20 195 6.4 12.9 0.00 0.00 0.00 53 1009.3
20260505003927 21 175 6.4 12.9 0.00 0.00 0.00 53 1009.2
20260505003425 21 189 4.8 11.3 0.00 0.00 0.00 53 1009.1
20260505002921 21 182 6.4 11.3 0.00 0.00 0.00 53 1009.2
20260505002417 21 178 6.4 11.3 0.00 0.00 0.00 53 1009.2
20260505001916 21 205 6.4 11.3 0.00 0.00 0.00 53 1009.1
20260505001413 21 151 8.0 14.5 0.00 0.00 0.00 52 1009.1
20260505000910 21 200 9.7 12.9 0.00 0.00 0.00 52 1009.1
20260505000408 21 211 4.8 14.5 0.00 0.00 0.00 52 1009.3
20260504235904 21 188 11.3 16.1 0.00 0.00 0.00 51 1009.0
20260504235401 22 213 8.0 12.9 0.00 0.00 0.00 52 1009.2
20260504234857 22 223 14.5 20.9 0.00 0.00 0.00 51 1009.1
20260504234355 22 189 8.0 12.9 0.00 0.00 0.00 52 1009.1
20260504233852 22 186 6.4 8.0 0.00 0.00 0.00 52 1009.2
20260504233347 22 202 6.4 11.3 0.00 0.00 0.00 52 1009.2
20260504232844 22 202 8.0 14.5 0.00 0.00 0.00 51 1009.4
20260504232342 22 217 14.5 22.5 0.00 0.00 0.00 50 1009.3
20260504231838 22 216 11.3 14.5 0.00 0.00 0.00 50 1009.4
20260504231335 22 175 11.3 22.5 0.00 0.00 0.00 49 1009.1
20260504230831 22 213 11.3 17.7 0.00 0.00 0.00 50 1009.4
20260504230329 22 209 8.0 22.5 0.00 0.00 0.00 50 1009.2
20260504225827 23 193 9.7 20.9 0.00 0.00 0.00 49 1009.2
20260504225323 23 238 12.9 22.5 0.00 0.00 0.00 48 1009.3
20260504224821 23 205 17.7 22.5 0.00 0.00 0.00 49 1009.3
20260504224318 23 210 9.7 14.5 0.00 0.00 0.00 49 1009.2
20260504223815 23 244 11.3 20.9 0.00 0.00 0.00 48 1009.1
20260504223310 23 209 11.3 27.4 0.00 0.00 0.00 47 1009.1
20260504222807 23 179 19.3 29.0 0.00 0.00 0.00 47 1009.1
20260504222305 23 216 9.7 16.1 0.00 0.00 0.00 48 1009.1
20260504221802 23 163 11.3 24.1 0.00 0.00 0.00 48 1009.3
20260504221258 23 222 12.9 20.9 0.00 0.00 0.00 48 1009.3
20260504220755 23 244 12.9 22.5 0.00 0.00 0.00 49 1009.4
20260504220252 23 213 12.9 17.7 0.00 0.00 0.00 49 1009.2
20260504215749 23 200 19.3 22.5 0.00 0.00 0.00 48 1009.3
20260504215246 23 209 16.1 24.1 0.00 0.00 0.00 48 1009.4
20260504214742 23 203 14.5 17.7 0.00 0.00 0.00 49 1009.6
20260504214238 23 257 9.7 14.5 0.00 0.00 0.00 50 1009.3
20260504213735 23 217 11.3 16.1 0.00 0.00 0.00 49 1009.3
20260504213231 23 215 8.0 17.7 0.00 0.00 0.00 50 1009.3
20260504212729 23 268 12.9 25.7 0.00 0.00 0.00 49 1009.2
20260504212225 23 226 12.9 16.1 0.00 0.00 0.00 50 1009.4
20260504211723 23 158 6.4 20.9 0.00 0.00 0.00 49 1009.4
20260504211219 23 218 14.5 17.7 0.00 0.00 0.00 48 1009.4
20260504210717 23 183 17.7 22.5 0.00 0.00 0.00 48 1009.3
20260504210213 23 199 17.7 20.9 0.00 0.00 0.00 50 1009.6
20260504205710 23 260 8.0 17.7 0.00 0.00 0.00 49 1009.5
20260504205208 23 210 11.3 17.7 0.00 0.00 0.00 49 1009.4
20260504204706 23 225 12.9 27.4 0.00 0.00 0.00 47 1009.7
20260504204204 23 264 14.5 25.7 0.00 0.00 0.00 47 1009.7
20260504203703 24 209 12.9 25.7 0.00 0.00 0.00 47 1009.4
20260504203201 24 230 22.5 25.7 0.00 0.00 0.00 47 1009.7
20260504202700 24 219 9.7 17.7 0.00 0.00 0.00 49 1009.8
20260504202158 24 177 11.3 17.7 0.00 0.00 0.00 49 1009.8
20260504201654 23 224 17.7 25.7 0.00 0.00 0.00 49 1009.8
20260504201152 24 205 9.7 24.1 0.00 0.00 0.00 49 1009.8
20260504200649 23 216 14.5 25.7 0.00 0.00 0.00 49 1010.1
20260504200146 24 223 17.7 24.1 0.00 0.00 0.00 48 1010.0
20260504195641 23 250 9.7 25.7 0.00 0.00 0.00 50 1010.3
20260504195138 24 231 8.0 17.7 0.00 0.00 0.00 50 1010.6
20260504194635 23 221 9.7 22.5 0.00 0.00 0.00 50 1010.5
20260504194131 23 237 11.3 24.1 0.00 0.00 0.00 50 1010.7
20260504193627 23 213 11.3 25.7 0.00 0.00 0.00 50 1010.6
20260504193126 23 212 9.7 16.1 0.00 0.00 0.00 52 1010.7
20260504192623 23 224 11.3 16.1 0.00 0.00 0.00 51 1010.9
20260504192121 23 214 20.9 25.7 0.00 0.00 0.00 50 1010.7
20260504191619 23 213 9.7 16.1 0.00 0.00 0.00 53 1011.0
20260504191115 23 221 11.3 17.7 0.00 0.00 0.00 52 1011.0
20260504190611 23 206 6.4 20.9 0.00 0.00 0.00 53 1011.2
20260504190108 23 232 9.7 16.1 0.00 0.00 0.00 54 1011.1
20260504185605 23 229 12.9 22.5 0.00 0.00 0.00 53 1011.0
20260504185101 23 214 12.9 20.9 0.00 0.00 0.00 53 1011.1
20260504184557 23 181 14.5 24.1 0.00 0.00 0.00 53 1011.3
20260504184052 23 230 17.7 22.5 0.00 0.00 0.00 53 1011.3
20260504183549 23 232 9.7 16.1 0.00 0.00 0.00 52 1011.4
20260504183048 22 232 11.3 25.7 0.00 0.00 0.00 52 1011.3
20260504182544 23 210 19.3 22.5 0.00 0.00 0.00 54 1011.5
20260504182042 23 221 16.1 20.9 0.00 0.00 0.00 53 1011.5
20260504181538 22 201 8.0 17.7 0.00 0.00 0.00 56 1011.4
20260504181037 22 274 8.0 16.1 0.00 0.00 0.00 55 1011.5
20260504180535 22 231 14.5 20.9 0.00 0.00 0.00 54 1011.6
20260504180034 22 192 6.4 12.9 0.00 0.00 0.00 56 1011.8
20260504175531 22 204 14.5 22.5 0.00 0.00 0.00 54 1011.8
20260504175028 21 166 9.7 20.9 0.00 0.00 0.00 58 1011.9
20260504174526 21 213 14.5 20.9 0.00 0.00 0.00 56 1011.8
20260504174022 22 260 17.7 22.5 0.00 0.00 0.00 56 1012.0
20260504173519 21 164 4.8 14.5 0.00 0.00 0.00 58 1012.0
20260504173017 21 213 8.0 17.7 0.00 0.00 0.00 59 1012.2
20260504172512 21 225 9.7 17.7 0.00 0.00 0.00 56 1011.9
20260504172009 21 218 11.3 16.1 0.00 0.00 0.00 56 1012.3
20260504171506 21 160 9.7 17.7 0.00 0.00 0.00 57 1012.4
20260504171003 20 177 9.7 14.5 0.00 0.00 0.00 58 1012.5
20260504170459 21 220 16.1 22.5 0.00 0.00 0.00 57 1012.5
20260504160419 19 178 9.7 16.1 0.00 0.00 0.00 61 1013.4
20260504150843 16 176 4.8 12.9 0.00 0.00 0.00 63 1014.5
20260504150339 16 195 6.4 14.5 0.00 0.00 0.00 62 1014.2
20260504141309 15 191 4.8 8.0 0.00 0.00 0.00 67 1015.0
20260504140806 15 192 3.2 8.0 0.00 0.00 0.00 64 1015.1
20260504140302 15 166 3.2 4.8 0.00 0.00 0.00 66 1015.1